DMSP 5D-2 F13 DEB, 40612

Orbit data source: Space-Track

DMSP 5D-2 F13 DEB, 40612 is space debris in SSO originally from a launch on Fri, 24 Mar 1995 UTC launched from the Air Force Western Test Range (AFWTR). Debris objects in space refer to the collection of defunct objects orbiting the Earth. Examples of debris include non-operational satellites, rocket bodies, and fragments generated from explosions, collisions, or faulty payload assembly.

Loading next visibility...
Identifier
40612, 1995-015FK
Orbit
SSO
Country
Flag of USUS
Related business
Manufacturer
Unknown
Mission
Spacecraft
Bus & Motor
Unknown
Mass
Unknown
Launch date (UTC)
1995-03-24 (31 years ago)
Launch vehicle
Unknown
Launch site
Air Force Western Test Range (AFWTR)
Object type
Payload
Rocket body
Debris
Shape & HBR
Unknown shape, 0.1 m
Radar Cross Section
Small (<0.1 m²)

Expand to show TLE details & history
Last TLE update: 16 hours ago

TLE from 16 hours ago
0 DMSP 5D-2 F13 DEB
1 40612U 95015FK  26127.06337209  .00003524  00000-0  11559-2 0  9998
2 40612  98.6774 164.8433 0007788 137.3004 222.8789 14.38985073573431
Epoch: 2026-05-07T01:31Z
TLE epoch observation values (Epoch: 2026-05-07T01:31:15.348Z)
Latitude
-0.00008°
Longitude
-82.88553°
Altitude
768.873 km
Speed
7.468 km/s
True Right ascension
10h 59m 22s
True Declination
0° 00' 00"
Sunlit
Object was in full shadow at epoch
Visualization orbit readout
Latitude
Unknown
Longitude
Unknown
Altitude
Unknown
Speed
Unknown
Apparent Right ascension
Unknown
Apparent Declination
Unknown
Sunlit
N/A
Visualization observer readout
Local Sidereal Time
02:02:27
Azimuth
Unknown
Elevation
Unknown
Doppler factor
Unknown
Orbital elements
Apogee altitude
764.544 km
Perigee altitude
753.427 km
Semi-major axis
7,137.122 km
Eccentricity
0.00078
Inclination
98.6774°
RAAN
164.8433°
Arg. of periapsis
137.3004°
True anomaly
222.81822°
Mean anomaly
222.8789°
Eccentric anomaly
222.84855°
Mean motion
3.59963 °/min
Orbital period
100.01 mins
BSTAR
0.0011559

Documentation

Showing up to 5 results
|